Find Starlink 35696

NORAD ID: 66489 Int'l Des: 2025-263 Owner: SPXS Country: US Constellation: starlink operational
LEOCIRCULAR

当前视图

正在加载3D地球...

关于 Starlink 35696

正在加载描述...

即将过境

Passes for default location (London). Set your location on the main map for personalized predictions.

高度历史

Loading altitude history...

两行轨道根数

1 66489U 25263E 26159.80303328 .00017786 00000-0 65405-3 0 9993
2 66489 42.9946 196.1267 0001854 266.9253 93.1386 15.27590625 32830
Epoch: Jun 8, 2026 • Age: 5 hours

当前状态

高度 482.4 km
速度 7.63 km/s
星下点 8.64°N, 53.58°W
发射日期 Nov 15, 2025
运行时间 0.5 years
类型 internet

技术详情

分类 Payload
质量 575.00 kg
干质量 530.00 kg
总质量 575.00 kg
长度 0.30 m
直径 4.10 m
跨度 29.00 m
形状 Box + pan
制造商 SPXS
平台类型 Starlink V2MO
阶段状态 In Orbit
所有者/国家 SPXS/US

Most Searched